Zurück zum Katalog

THOR ABLESTAR DEB

AktivLEO
NORAD 552·DEBRIS·🇺🇸 United States

Gestartet Jun 29, 1961 von Cape Canaveral Space Force Station

Loading…

Nächste Überflüge (nächste 24 Stunden)

TLE

AktuellSource: Space-Track

Epoche: Sep 14, 2026, 13:54 UTC

1 00552U 61015GM  26257.57970620  .00000977  00000-0  68356-3 0  9997
2 00552  67.7360 198.2622 0101262 273.3305  85.6206 13.99818886269216

Verfolge THOR ABLESTAR DEB in Echtzeit mit AllMySat

Download on the App Store